QPF
0.01 0.00 0.00 0.00 0.00 0.00 0.00 0.00 0.00 0.00 0.00 0.01 0.00 0.00 0.03 0.02 0.00 0.00 0.00 0.00 0.00 0.00 0.00 0.00 0.00 0.00 0.00 0.00 0.00 0.00 0.00 0.00 0.00 0.00 0.00 0.00 0.00 0.00 0.00 0.00 0.00 0.00 0.00 0.00 0.00
0.01 0.00 0.00 0.00 0.00 0.00 0.01 0.00 0.00 0.00 0.01 0.01 0.00 0.02 0.02 0.01 0.00 0.00 0.00 0.00 0.00 0.00 0.00 0.00 0.00 0.00 0.00 0.00 0.00 0.00 0.00 0.00 0.00 0.00 0.00 0.00 0.00 0.00 0.00 0.00 0.00 0.00 0.00 0.00 0.00
0.00 0.00 0.00 0.01 0.01 0.00 0.01 0.00 0.00 0.01 0.02 0.03 0.05 0.07 0.02 0.02 0.00 0.00 0.00 0.00 0.00 0.00 0.00 0.00 0.00 0.00 0.00 0.00 0.00 0.00 0.00 0.00 0.00 0.00 0.00 0.00 0.00 0.00 0.00 0.00 0.00 0.00 0.00 0.00 0.00
0.01 0.01 0.04 0.04 0.02 0.00 0.01 0.01 0.01 0.06 0.11 0.10 0.06 0.14 0.07 0.02 0.00 0.00 0.00 0.00 0.00 0.00 0.00 0.00 0.00 0.00 0.00 0.00 0.00 0.00 0.00 0.00 0.00 0.00 0.00 0.00 0.00 0.00 0.00 0.00 0.00 0.00 0.00 0.00 0.00
0.00 0.00 0.07 0.03 0.03 0.03 0.05 0.06 0.13 0.21 0.22 0.06 0.00 0.04 0.06 0.01 0.00 0.00 0.00 0.00 0.00 0.00 0.00 0.00 0.00 0.00 0.00 0.00 0.00 0.00 0.00 0.00 0.00 0.00 0.00 0.00 0.00 0.00 0.00 0.00 0.00 0.00 0.00 0.00 0.00
0.00 0.00 0.00 0.01 0.01 0.02 0.04 0.05 0.22 0.24 0.15 0.02 0.00 0.01 0.07 0.00 0.00 0.00 0.00 0.00 0.00 0.00 0.00 0.00 0.00 0.00 0.00 0.00 0.00 0.00 0.00 0.00 0.00 0.00 0.00 0.00 0.00 0.00 0.00 0.00 0.00 0.00 0.00 0.00 0.00
0.00 0.00 0.00 0.00 0.00 0.01 0.02 0.03 0.08 0.05 0.01 0.01 0.00 0.02 0.03 0.00 0.00 0.00 0.00 0.00 0.00 0.00 0.00 0.00 0.00 0.00 0.00 0.00 0.00 0.00 0.00 0.00 0.00 0.00 0.00 0.00 0.00 0.00 0.00 0.00 0.00 0.00 0.00 0.00 0.00
0.00 0.00 0.00 0.00 0.00 0.00 0.00 0.00 0.01 0.03 0.02 0.00 0.00 0.00 0.00 0.00 0.00 0.00 0.00 0.00 0.00 0.00 0.00 0.00 0.00 0.00 0.00 0.00 0.00 0.00 0.00 0.00 0.00 0.00 0.00 0.00 0.00 0.00 0.00 0.00 0.00 0.00 0.00 0.00 0.00
0.00 0.00 0.00 0.00 0.00 0.00 0.00 0.00 0.00 0.00 0.00 0.00 0.00 0.00 0.00 0.00 0.00 0.00 0.00 0.00 0.00 0.00 0.00 0.00 0.00 0.00 0.00 0.00 0.00 0.00 0.00 0.00 0.00 0.00 0.00 0.00 0.00 0.00 0.00 0.00 0.00 0.00 0.00 0.00 0.00
0.00 0.00 0.00 0.00 0.00 0.00 0.00 0.00 0.00 0.00 0.00 0.00 0.00 0.00 0.00 0.00 0.00 0.00 0.00 0.00 0.00 0.00 0.00 0.00 0.00 0.00 0.00 0.00 0.00 0.00 0.00 0.00 0.00 0.00 0.00 0.00 0.00 0.00 0.00 0.00 0.00 0.00 0.00 0.00 0.00
0.00 0.00 0.00 0.00 0.00 0.00 0.00 0.00 0.00 0.00 0.00 0.00 0.00 0.00 0.00 0.00 0.00 0.00 0.00 0.00 0.00 0.00 0.00 0.00 0.00 0.00 0.00 0.00 0.00 0.00 0.00 0.00 0.00 0.00 0.00 0.00 0.00 0.00 0.00 0.00 0.00 0.00 0.00 0.00 0.00
0.00 0.00 0.00 0.00 0.00 0.00 0.00 0.00 0.00 0.00 0.00 0.00 0.00 0.00 0.00 0.00 0.00 0.00 0.00 0.00 0.00 0.00 0.00 0.00 0.00 0.00 0.00 0.00 0.00 0.00 0.00 0.00 0.00 0.00 0.00 0.00 0.00 0.00 0.00 0.00 0.00 0.00 0.00 0.00 0.00
0.00 0.00 0.00 0.00 0.00 0.00 0.00 0.00 0.00 0.00 0.00 0.00 0.00 0.00 0.00 0.00 0.00 0.00 0.00 0.00 0.00 0.00 0.00 0.00 0.00 0.00 0.00 0.00 0.00 0.00 0.00 0.00 0.00 0.00 0.00 0.00 0.00 0.00 0.00 0.00 0.00 0.00 0.00 0.00 0.00
0.00 0.00 0.00 0.00 0.00 0.00 0.00 0.00 0.00 0.00 0.00 0.00 0.00 0.00 0.00 0.00 0.00 0.00 0.00 0.00 0.00 0.00 0.00 0.00 0.00 0.00 0.00 0.00 0.00 0.00 0.00 0.00 0.00 0.00 0.00 0.00 0.00 0.00 0.00 0.00 0.00 0.00 0.00 0.00 0.00
0.00 0.00 0.00 0.00 0.00 0.00 0.00 0.00 0.00 0.00 0.00 0.00 0.00 0.00 0.00 0.00 0.00 0.00 0.00 0.00 0.00 0.00 0.00 0.00 0.00 0.00 0.00 0.00 0.00 0.00 0.00 0.00 0.00 0.00 0.00 0.00 0.00 0.00 0.00 0.00 0.00 0.00 0.00 0.00 0.00
0.00 0.00 0.00 0.00 0.00 0.00 0.00 0.00 0.00 0.00 0.00 0.00 0.00 0.00 0.00 0.00 0.00 0.00 0.00 0.00 0.00 0.00 0.00 0.00 0.00 0.00 0.00 0.00 0.00 0.00 0.00 0.00 0.00 0.00 0.00 0.00 0.00 0.00 0.00 0.00 0.00 0.00 0.00 0.00 0.00
0.00 0.00 0.00 0.00 0.00 0.00 0.00 0.00 0.00 0.00 0.00 0.00 0.00 0.00 0.00 0.00 0.00 0.00 0.00 0.00 0.00 0.00 0.00 0.00 0.00 0.00 0.00 0.00 0.00 0.00 0.00 0.00 0.00 0.00 0.00 0.00 0.00 0.00 0.00 0.00 0.00 0.00 0.00 0.00 0.00
0.00 0.00 0.00 0.00 0.00 0.00 0.00 0.00 0.00 0.00 0.00 0.00 0.00 0.00 0.00 0.00 0.00 0.00 0.00 0.00 0.00 0.00 0.00 0.00 0.00 0.00 0.00 0.00 0.00 0.00 0.00 0.00 0.00 0.00 0.00 0.00 0.00 0.00 0.00 0.00 0.00 0.00 0.00 0.00 0.00
0.00 0.00 0.00 0.00 0.00 0.00 0.00 0.00 0.00 0.00 0.00 0.00 0.00 0.00 0.00 0.00 0.00 0.00 0.00 0.00 0.00 0.00 0.00 0.00 0.00 0.00 0.00 0.00 0.00 0.00 0.00 0.00 0.00 0.00 0.00 0.00 0.00 0.00 0.00 0.00 0.00 0.00 0.00 0.00 0.00
0.00 0.00 0.00 0.00 0.00 0.00 0.00 0.00 0.00 0.00 0.00 0.00 0.00 0.00 0.00 0.00 0.00 0.00 0.00 0.00 0.00 0.00 0.00 0.00 0.00 0.00 0.00 0.00 0.00 0.00 0.00 0.00 0.00 0.00 0.00 0.00 0.00 0.00 0.00 0.00 0.00 0.00 0.00 0.00 0.00
0.00 0.00 0.00 0.00 0.00 0.00 0.00 0.00 0.00 0.00 0.00 0.00 0.00 0.00 0.00 0.00 0.00 0.00 0.00 0.00 0.00 0.00 0.00 0.00 0.00 0.00 0.00 0.00 0.00 0.00 0.00 0.00 0.00 0.00 0.00 0.00 0.00 0.00 0.00 0.00 0.00 0.00 0.00 0.00 0.00
0.00 0.00 0.00 0.00 0.00 0.00 0.00 0.00 0.00 0.00 0.00 0.00 0.00 0.00 0.00 0.00 0.00 0.00 0.00 0.00 0.00 0.00 0.00 0.00 0.00 0.00 0.00 0.00 0.00 0.00 0.00 0.00 0.00 0.00 0.00 0.00 0.00 0.00 0.00 0.00 0.00 0.00 0.00 0.00 0.00
0.00 0.00 0.00 0.00 0.00 0.00 0.00 0.00 0.00 0.00 0.00 0.00 0.00 0.00 0.00 0.00 0.00 0.00 0.00 0.00 0.00 0.00 0.00 0.00 0.00 0.00 0.00 0.00 0.00 0.00 0.00 0.00 0.00 0.00 0.00 0.00 0.00 0.00 0.00 0.00 0.00 0.00 0.00 0.00 0.00
0.00 0.00 0.00 0.00 0.00 0.00 0.00 0.00 0.00 0.00 0.00 0.00 0.00 0.00 0.00 0.00 0.00 0.00 0.00 0.00 0.00 0.00 0.00 0.00 0.00 0.00 0.00 0.00 0.00 0.00 0.00 0.00 0.00 0.00 0.00 0.00 0.00 0.00 0.00 0.00 0.00 0.00 0.00 0.00 0.00
0.00 0.00 0.00 0.00 0.00 0.00 0.00 0.00 0.00 0.00 0.00 0.00 0.00 0.00 0.00 0.00 0.00 0.00 0.00 0.00 0.00 0.00 0.00 0.00 0.00 0.00 0.00 0.00 0.00 0.00 0.00 0.00 0.00 0.00 0.00 0.00 0.00 0.00 0.00 0.00 0.00 0.00 0.00 0.00 0.00
0.00 0.00 0.00 0.00 0.00 0.00 0.00 0.00 0.00 0.00 0.00 0.00 0.00 0.00 0.00 0.00 0.00 0.00 0.00 0.00 0.00 0.00 0.00 0.00 0.00 0.00 0.00 0.00 0.00 0.00 0.00 0.00 0.00 0.00 0.00 0.00 0.00 0.00 0.00 0.00 0.00 0.00 0.00 0.00 0.00
0.00 0.00 0.00 0.00 0.00 0.00 0.00 0.00 0.00 0.00 0.00 0.00 0.00 0.00 0.00 0.00 0.00 0.00 0.00 0.00 0.00 0.00 0.00 0.00 0.00 0.00 0.00 0.00 0.00 0.00 0.00 0.00 0.00 0.00 0.00 0.00 0.00 0.00 0.00 0.00 0.00 0.00 0.00 0.00 0.00
MSLP
1013.67 1013.25 1012.95 1012.69 1012.45 1012.35 1012.51 1012.54 1012.69 1012.91 1013.19 1013.45 1013.70 1013.92 1014.14 1014.59 1014.95 1015.19 1014.34 1013.35 1012.88 1013.48 1013.44 1012.87 1012.95 1012.71 1012.21 1012.06 1012.09 1011.90 1011.80 1011.24 1010.40 1009.74 1009.60 1009.77 1010.29 1010.73 1011.06 1011.25 1011.57 1012.40 1013.31 1014.01 1014.72
1013.77 1013.39 1013.08 1012.84 1012.61 1012.47 1012.36 1012.56 1012.66 1012.88 1013.12 1013.35 1013.53 1013.71 1014.20 1014.70 1014.75 1014.03 1013.40 1013.19 1013.32 1013.54 1013.54 1012.89 1012.58 1012.46 1012.23 1011.98 1012.28 1012.01 1011.61 1011.15 1010.96 1010.51 1010.28 1010.40 1010.44 1011.03 1011.40 1011.66 1012.45 1013.40 1014.10 1014.51 1015.11
1013.92 1013.55 1013.23 1012.93 1012.67 1012.69 1012.60 1012.71 1012.86 1013.08 1013.26 1013.36 1013.34 1013.70 1014.35 1014.82 1014.77 1012.65 1012.53 1013.14 1013.37 1013.56 1013.35 1012.53 1012.13 1012.19 1011.84 1011.59 1011.74 1011.61 1011.44 1011.21 1011.64 1011.58 1011.01 1011.08 1011.16 1011.22 1011.50 1012.08 1012.57 1013.06 1013.98 1014.67 1015.18
1014.23 1013.79 1013.26 1012.69 1012.95 1012.99 1013.01 1013.11 1013.23 1013.25 1013.28 1013.59 1013.72 1013.99 1014.71 1014.89 1013.96 1012.78 1012.77 1013.02 1013.36 1013.55 1013.10 1012.66 1012.31 1012.06 1011.55 1011.51 1011.29 1011.41 1011.67 1011.95 1012.26 1012.33 1011.89 1012.03 1011.76 1011.95 1011.96 1012.68 1012.82 1013.14 1013.77 1014.36 1015.01
1014.58 1014.19 1013.79 1013.54 1013.42 1013.29 1013.45 1013.46 1013.69 1013.85 1014.00 1014.23 1014.30 1014.19 1014.80 1014.65 1013.16 1012.88 1012.99 1013.22 1013.36 1013.53 1012.96 1012.48 1012.06 1011.73 1011.25 1011.28 1011.12 1011.50 1012.07 1012.65 1012.95 1012.84 1012.93 1012.90 1012.74 1012.71 1012.58 1012.74 1013.18 1013.53 1013.95 1014.25 1014.61
1014.89 1014.61 1014.33 1014.04 1013.95 1013.90 1014.01 1014.17 1014.34 1014.66 1014.82 1014.80 1014.79 1014.67 1014.92 1014.20 1012.49 1012.40 1012.65 1012.97 1013.01 1013.15 1012.69 1012.23 1011.62 1011.10 1010.98 1010.90 1011.09 1011.19 1012.17 1013.06 1013.20 1013.31 1013.47 1013.45 1013.14 1013.05 1012.60 1012.73 1013.43 1013.74 1013.89 1014.11 1014.30
1014.93 1014.88 1014.70 1014.46 1014.36 1014.42 1014.56 1014.82 1015.24 1015.01 1014.89 1014.95 1014.96 1014.75 1014.74 1013.34 1012.48 1012.30 1012.54 1012.61 1012.68 1012.69 1012.42 1012.06 1011.98 1011.84 1010.75 1011.02 1011.34 1011.68 1012.72 1013.29 1013.42 1013.51 1013.57 1013.73 1013.55 1013.06 1012.87 1013.01 1013.49 1013.66 1013.75 1014.01 1014.21
1015.24 1014.81 1014.76 1014.57 1014.57 1014.58 1014.94 1015.11 1015.19 1015.43 1015.58 1015.24 1015.22 1014.59 1013.81 1012.63 1012.45 1012.49 1012.35 1012.42 1012.53 1012.45 1012.29 1012.31 1012.19 1011.91 1011.64 1011.69 1011.81 1012.10 1012.46 1013.11 1013.47 1013.53 1013.85 1013.80 1013.31 1012.61 1012.92 1013.31 1013.47 1013.43 1013.52 1013.82 1014.17
1015.38 1015.00 1014.86 1014.91 1014.73 1014.79 1014.76 1015.11 1014.97 1015.10 1015.67 1015.76 1015.68 1015.06 1013.88 1013.01 1012.64 1012.01 1011.80 1012.10 1012.46 1012.62 1012.53 1012.49 1012.29 1012.17 1012.20 1012.14 1012.09 1011.94 1012.13 1012.57 1013.44 1013.58 1013.66 1013.89 1013.28 1012.85 1012.93 1013.26 1013.39 1013.27 1013.43 1013.68 1014.19
1015.38 1015.11 1014.88 1014.82 1014.85 1014.75 1014.70 1014.76 1014.99 1015.27 1015.50 1015.51 1015.38 1015.97 1013.41 1012.67 1012.49 1012.11 1011.64 1011.84 1012.12 1012.65 1012.73 1012.69 1012.67 1012.64 1012.49 1012.17 1011.78 1011.49 1011.72 1011.89 1012.84 1013.73 1013.82 1013.81 1013.22 1012.82 1012.76 1013.05 1013.32 1013.29 1013.52 1013.86 1014.48
1014.98 1015.00 1014.52 1014.40 1014.23 1014.30 1014.27 1014.64 1015.24 1015.17 1014.44 1013.78 1013.18 1012.51 1012.08 1012.15 1012.35 1011.97 1011.86 1011.73 1012.02 1012.40 1012.52 1012.74 1012.99 1012.89 1012.62 1012.02 1011.42 1010.99 1011.42 1011.97 1012.94 1013.77 1013.97 1013.68 1013.15 1012.50 1012.39 1012.79 1013.01 1013.34 1013.67 1014.16 1014.95
1014.97 1014.72 1014.70 1014.45 1014.23 1014.17 1014.24 1013.75 1014.15 1014.42 1013.98 1013.14 1012.72 1012.56 1012.40 1012.36 1012.09 1012.01 1011.97 1011.82 1011.99 1012.39 1012.47 1013.24 1013.41 1013.58 1013.10 1012.44 1011.76 1011.13 1011.62 1012.65 1013.55 1013.96 1014.27 1013.79 1013.25 1012.13 1012.21 1012.45 1012.91 1013.42 1013.86 1014.61 1015.62
1015.07 1014.69 1014.55 1014.42 1014.22 1014.05 1013.73 1014.29 1014.23 1014.06 1013.53 1013.10 1012.61 1012.50 1012.64 1012.26 1012.30 1012.39 1011.98 1011.57 1012.03 1012.63 1013.14 1013.47 1014.53 1014.15 1013.69 1013.14 1012.78 1012.95 1013.23 1013.68 1014.22 1014.47 1014.45 1014.49 1013.44 1012.26 1012.52 1012.82 1013.33 1013.88 1014.20 1014.76 1015.63
1015.23 1014.72 1014.24 1014.20 1014.49 1013.94 1014.12 1014.33 1014.19 1014.12 1013.63 1013.45 1012.55 1012.66 1012.43 1012.31 1012.76 1012.82 1012.61 1012.41 1012.75 1013.50 1014.04 1014.78 1015.10 1014.64 1014.31 1014.41 1014.41 1014.54 1014.76 1014.85 1014.97 1015.21 1015.33 1014.96 1014.43 1013.05 1012.97 1013.49 1013.83 1014.28 1014.74 1015.13 1015.72
1014.92 1014.76 1014.29 1014.03 1013.89 1014.06 1014.61 1014.33 1014.16 1014.21 1014.11 1013.96 1012.95 1012.50 1012.32 1012.66 1012.89 1013.09 1012.90 1012.54 1013.34 1014.27 1014.85 1015.99 1015.71 1015.48 1015.30 1015.92 1015.46 1015.87 1015.69 1015.90 1016.20 1016.34 1016.36 1015.96 1015.76 1013.85 1013.50 1013.70 1013.87 1014.22 1014.85 1015.44 1015.95
1014.79 1014.60 1014.21 1014.02 1013.96 1014.59 1014.40 1014.31 1014.21 1014.55 1014.87 1014.28 1013.37 1012.88 1012.71 1012.72 1013.10 1013.19 1013.10 1013.23 1014.01 1014.63 1015.49 1016.43 1016.53 1016.63 1016.67 1016.75 1016.15 1016.42 1016.55 1016.87 1017.18 1017.49 1017.84 1016.90 1016.55 1014.73 1014.04 1013.57 1013.60 1014.16 1014.88 1015.68 1016.40
1014.82 1014.51 1014.06 1013.93 1014.49 1014.40 1014.37 1014.33 1014.56 1014.74 1015.55 1014.72 1014.06 1013.40 1013.13 1013.23 1013.27 1013.16 1013.21 1013.88 1014.45 1015.32 1016.57 1016.66 1017.14 1017.38 1017.26 1017.05 1016.97 1016.95 1017.45 1018.09 1018.55 1018.63 1018.48 1017.84 1017.57 1014.95 1014.33 1014.07 1014.26 1014.51 1015.20 1015.93 1016.68
1014.98 1014.73 1014.43 1014.46 1014.50 1014.35 1014.39 1014.50 1014.95 1015.93 1015.40 1014.87 1014.38 1013.69 1013.54 1013.74 1013.63 1013.52 1013.78 1014.49 1014.95 1015.17 1016.10 1016.86 1017.90 1017.88 1017.94 1017.74 1017.59 1017.55 1017.98 1018.48 1018.95 1019.06 1018.97 1018.45 1017.12 1015.17 1014.81 1014.51 1014.64 1014.72 1014.99 1015.95 1016.76
1014.98 1014.53 1014.14 1014.56 1014.50 1014.46 1014.55 1014.95 1016.35 1016.30 1015.69 1014.87 1014.31 1013.77 1013.71 1013.67 1013.63 1013.63 1014.20 1014.96 1015.82 1015.96 1016.39 1016.63 1017.93 1018.49 1018.47 1018.24 1018.21 1018.23 1018.48 1018.64 1018.82 1018.77 1018.80 1017.54 1016.17 1015.45 1014.98 1014.98 1015.04 1015.16 1015.55 1016.09 1016.66
1015.17 1014.51 1014.55 1014.51 1014.50 1014.42 1014.65 1015.91 1016.36 1016.37 1015.86 1015.19 1014.36 1014.08 1013.55 1013.80 1013.74 1013.88 1014.60 1015.86 1016.16 1016.45 1016.46 1016.49 1017.64 1018.56 1018.72 1018.64 1018.71 1018.67 1018.83 1018.82 1019.18 1019.56 1019.04 1017.22 1016.26 1015.49 1015.38 1015.17 1015.20 1015.44 1015.76 1016.06 1016.52
1015.29 1014.68 1014.84 1014.65 1014.49 1014.55 1015.30 1015.98 1016.26 1016.12 1015.79 1015.25 1014.72 1014.23 1014.11 1014.02 1014.01 1014.49 1015.47 1016.49 1016.60 1016.63 1016.57 1016.72 1017.02 1018.91 1018.87 1018.75 1018.60 1018.98 1018.74 1018.94 1019.28 1019.32 1019.18 1018.18 1016.72 1015.19 1015.31 1015.09 1015.02 1015.19 1015.56 1015.90 1016.23
1015.01 1014.67 1014.68 1014.86 1014.87 1014.92 1016.08 1016.46 1016.65 1016.18 1015.67 1015.26 1014.92 1014.64 1014.58 1014.52 1014.71 1015.20 1015.89 1016.71 1017.14 1017.12 1016.95 1017.28 1017.51 1018.61 1018.72 1018.73 1018.81 1018.69 1018.40 1018.36 1019.16 1019.32 1019.06 1018.47 1016.53 1015.21 1015.26 1015.30 1015.35 1015.41 1015.51 1015.76 1015.86
1015.16 1014.79 1014.39 1014.38 1014.98 1015.67 1016.27 1016.49 1016.62 1016.32 1016.30 1015.91 1015.66 1015.61 1015.26 1015.13 1015.53 1015.78 1016.57 1017.55 1017.65 1017.69 1017.92 1017.85 1017.84 1018.39 1019.02 1019.40 1019.09 1018.92 1018.46 1018.49 1018.82 1019.38 1019.12 1018.56 1016.66 1015.65 1015.44 1015.53 1015.69 1015.98 1015.99 1016.04 1015.94
1015.08 1015.17 1014.68 1014.60 1014.97 1015.38 1015.87 1016.40 1016.76 1016.93 1016.82 1016.57 1016.25 1015.99 1015.75 1015.87 1016.11 1016.54 1017.20 1017.94 1018.18 1018.29 1018.48 1018.43 1018.29 1018.37 1018.60 1018.36 1018.14 1018.42 1018.19 1018.39 1018.95 1019.47 1018.47 1017.40 1016.42 1016.09 1015.98 1016.24 1016.26 1016.34 1016.37 1016.55 1016.56
1015.47 1016.29 1016.49 1015.97 1015.85 1015.82 1015.57 1015.85 1016.16 1016.55 1016.65 1016.59 1016.52 1016.46 1016.34 1016.25 1016.40 1016.72 1017.24 1017.89 1018.24 1018.43 1018.48 1018.68 1018.94 1018.78 1018.65 1018.47 1018.28 1018.15 1018.07 1018.24 1018.48 1017.74 1017.67 1016.52 1016.39 1016.16 1016.57 1016.64 1016.80 1017.06 1017.15 1017.32 1017.52
1016.81 1016.90 1016.52 1016.25 1016.26 1015.92 1016.13 1016.49 1016.54 1016.65 1016.68 1016.59 1016.50 1016.50 1016.45 1016.64 1016.96 1017.05 1017.25 1017.59 1017.82 1018.59 1018.59 1018.79 1018.89 1018.85 1018.49 1017.65 1017.68 1017.80 1017.24 1017.41 1017.36 1017.23 1017.18 1017.11 1016.73 1016.83 1017.01 1017.12 1017.53 1017.98 1018.11 1018.29 1018.31
1017.28 1017.32 1017.26 1016.59 1015.91 1015.85 1016.45 1016.62 1016.74 1016.93 1017.19 1017.06 1016.99 1016.95 1017.06 1017.35 1017.32 1017.29 1017.27 1017.43 1017.67 1018.08 1018.70 1019.03 1019.26 1019.36 1018.72 1018.06 1017.85 1017.27 1015.66 1015.87 1016.18 1016.07 1016.27 1016.65 1016.90 1017.22 1017.65 1017.97 1018.45 1018.71 1018.81 1018.98 1019.01
Thickness
5543 5544 5543 5542 5542 5542 5541 5542 5544 5546 5548 5552 5556 5563 5570 5576 5585 5595 5611 5633 5651 5658 5669 5683 5689 5696 5707 5709 5719 5725 5702 5704 5725 5732 5735 5748 5740 5749 5750 5744 5749 5745 5738 5740 5738
5537 5536 5535 5535 5534 5534 5536 5536 5539 5540 5542 5544 5550 5556 5562 5568 5580 5595 5613 5628 5640 5649 5659 5671 5678 5689 5692 5701 5704 5702 5700 5714 5724 5732 5737 5740 5743 5737 5736 5737 5733 5729 5732 5734 5731
5532 5529 5526 5526 5528 5527 5528 5530 5531 5533 5534 5537 5545 5549 5552 5559 5570 5599 5615 5621 5630 5640 5654 5670 5679 5684 5687 5700 5703 5708 5703 5720 5720 5722 5732 5734 5734 5741 5734 5726 5732 5730 5725 5727 5725
5526 5523 5522 5523 5520 5520 5521 5523 5524 5526 5528 5529 5534 5540 5542 5553 5563 5595 5607 5615 5623 5634 5649 5659 5669 5673 5682 5687 5705 5700 5710 5714 5716 5714 5721 5723 5731 5726 5730 5724 5731 5731 5732 5727 5723
5522 5520 5519 5517 5516 5517 5517 5519 5517 5516 5517 5517 5520 5530 5536 5544 5566 5589 5600 5609 5618 5628 5640 5652 5661 5671 5677 5689 5700 5694 5700 5703 5705 5709 5710 5713 5716 5715 5720 5726 5729 5727 5725 5724 5722
5521 5520 5518 5517 5515 5515 5515 5513 5511 5508 5508 5507 5512 5521 5528 5537 5574 5585 5598 5607 5617 5624 5636 5650 5664 5677 5682 5686 5691 5699 5699 5693 5701 5702 5703 5703 5711 5712 5722 5723 5720 5720 5719 5720 5721
5525 5521 5518 5518 5516 5514 5513 5511 5504 5504 5503 5503 5507 5517 5522 5542 5571 5582 5593 5604 5615 5624 5632 5648 5658 5663 5685 5680 5696 5695 5681 5685 5693 5698 5698 5699 5697 5699 5717 5717 5713 5716 5716 5717 5716
5530 5528 5524 5522 5520 5518 5514 5510 5507 5498 5495 5499 5506 5523 5532 5558 5568 5579 5592 5601 5614 5625 5634 5645 5656 5665 5673 5682 5684 5680 5684 5670 5685 5693 5691 5695 5688 5709 5712 5708 5708 5712 5714 5712 5712
5537 5535 5532 5527 5526 5524 5521 5515 5514 5508 5502 5502 5510 5518 5529 5554 5564 5583 5594 5598 5608 5619 5629 5642 5651 5656 5665 5661 5662 5676 5665 5679 5674 5690 5690 5687 5690 5706 5709 5705 5705 5709 5711 5709 5705
5544 5542 5539 5536 5533 5531 5528 5525 5521 5515 5512 5514 5519 5512 5539 5552 5566 5581 5597 5603 5606 5611 5619 5630 5638 5640 5650 5652 5640 5664 5673 5685 5677 5679 5682 5682 5683 5702 5703 5702 5699 5703 5705 5704 5697
5556 5552 5551 5547 5545 5541 5539 5535 5529 5527 5533 5539 5546 5554 5560 5566 5574 5583 5595 5601 5607 5612 5613 5627 5622 5625 5648 5668 5677 5685 5681 5683 5677 5675 5675 5677 5685 5697 5708 5699 5697 5701 5698 5695 5689
5564 5561 5556 5554 5551 5548 5547 5549 5543 5543 5542 5552 5557 5559 5565 5572 5575 5584 5598 5599 5604 5602 5622 5620 5620 5635 5651 5663 5677 5687 5687 5670 5670 5674 5671 5679 5681 5697 5704 5705 5700 5697 5693 5686 5678
5571 5568 5564 5560 5559 5557 5559 5550 5550 5552 5556 5556 5564 5566 5569 5581 5580 5585 5601 5612 5608 5610 5617 5619 5620 5637 5646 5659 5667 5657 5662 5664 5662 5668 5672 5666 5675 5696 5696 5694 5690 5691 5690 5683 5674
5577 5576 5573 5567 5563 5565 5560 5557 5557 5559 5556 5558 5568 5571 5580 5584 5580 5594 5602 5610 5610 5604 5613 5612 5623 5635 5646 5643 5645 5652 5653 5657 5661 5656 5640 5670 5637 5689 5683 5679 5679 5676 5675 5673 5669
5585 5582 5581 5576 5574 5570 5565 5565 5566 5566 5547 5566 5573 5587 5589 5586 5589 5593 5608 5615 5607 5607 5612 5606 5621 5630 5635 5627 5641 5638 5650 5648 5650 5648 5642 5657 5620 5669 5681 5674 5671 5672 5669 5665 5660
5593 5590 5588 5585 5581 5573 5574 5574 5575 5564 5539 5560 5576 5580 5586 5593 5594 5601 5608 5614 5613 5610 5608 5606 5618 5619 5624 5628 5639 5641 5644 5645 5642 5631 5606 5647 5628 5637 5661 5675 5675 5671 5664 5657 5649
5598 5596 5595 5591 5586 5582 5581 5582 5566 5559 5567 5570 5572 5583 5589 5591 5596 5606 5611 5606 5605 5588 5584 5612 5610 5616 5623 5628 5633 5637 5622 5604 5603 5601 5606 5625 5613 5639 5663 5665 5661 5661 5653 5645 5638
5601 5600 5599 5594 5591 5588 5588 5587 5570 5567 5571 5580 5581 5592 5588 5591 5597 5607 5609 5603 5610 5618 5604 5594 5588 5612 5617 5620 5624 5631 5625 5606 5606 5601 5608 5621 5610 5633 5651 5653 5651 5649 5646 5637 5627
5606 5607 5607 5601 5598 5596 5595 5574 5565 5569 5579 5585 5591 5597 5595 5601 5605 5611 5607 5605 5602 5607 5610 5613 5599 5607 5610 5617 5618 5621 5606 5620 5609 5624 5600 5610 5641 5647 5646 5641 5641 5640 5632 5625 5621
5610 5612 5609 5607 5605 5605 5598 5580 5580 5582 5585 5593 5596 5601 5605 5604 5609 5614 5614 5602 5604 5607 5613 5618 5596 5604 5606 5611 5612 5612 5614 5602 5590 5596 5606 5607 5637 5610 5631 5634 5631 5627 5624 5621 5617
5612 5613 5610 5610 5611 5611 5591 5589 5591 5592 5594 5597 5601 5607 5608 5610 5614 5614 5606 5601 5607 5611 5614 5617 5618 5596 5604 5603 5610 5601 5605 5606 5601 5599 5592 5595 5595 5634 5609 5628 5627 5620 5618 5615 5611
5619 5614 5615 5612 5610 5608 5590 5593 5586 5594 5601 5604 5607 5608 5607 5611 5611 5611 5608 5603 5605 5608 5612 5610 5610 5585 5607 5603 5604 5604 5611 5612 5584 5598 5591 5583 5577 5631 5618 5615 5615 5617 5617 5612 5606
5621 5619 5620 5618 5603 5595 5595 5592 5593 5597 5594 5598 5601 5601 5606 5607 5604 5608 5602 5595 5599 5601 5598 5602 5604 5582 5590 5589 5595 5591 5600 5602 5597 5579 5580 5579 5587 5612 5609 5602 5605 5602 5597 5596 5596
5625 5609 5616 5616 5615 5608 5601 5596 5591 5591 5592 5595 5597 5601 5605 5602 5601 5598 5596 5592 5592 5594 5591 5593 5598 5598 5586 5601 5601 5592 5596 5593 5583 5545 5576 5583 5605 5598 5597 5593 5592 5590 5586 5581 5578
5621 5605 5602 5599 5602 5605 5610 5608 5603 5598 5597 5598 5597 5597 5598 5600 5600 5598 5597 5591 5592 5586 5593 5589 5586 5576 5585 5587 5592 5592 5592 5585 5569 5585 5576 5601 5595 5594 5581 5579 5577 5572 5571 5567 5562
5610 5607 5606 5606 5605 5607 5602 5596 5599 5598 5597 5599 5601 5601 5602 5598 5594 5596 5597 5594 5597 5585 5588 5584 5579 5585 5579 5595 5590 5580 5586 5584 5586 5586 5580 5580 5582 5575 5573 5569 5563 5554 5553 5547 5543
5605 5603 5601 5600 5611 5607 5597 5595 5595 5594 5592 5594 5595 5596 5598 5593 5594 5594 5594 5595 5595 5591 5580 5579 5572 5571 5576 5587 5581 5574 5598 5591 5587 5589 5585 5571 5574 5566 5559 5555 5545 5539 5534 5529 5525